Weather History for KEKQ - August, 2013

Change the Weather History Date:

Monday, August 12, 2013

  Actual Average Record
Temperature  
Mean Temperature 75 °F -  
Max Temperature 81 °F 84 °F 97 °F (2010)
Min Temperature 69 °F 61 °F 46 °F (2008)
Cooling Degree Days 10    
Growing Degree Days 25 (Base 50)    
Moisture  
Dew Point 73 °F    
Average Humidity 98    
Maximum Humidity 100    
Minimum Humidity 77    
Precipitation  
Precipitation 1.65 in - - ()
Sea Level Pressure  
Sea Level Pressure 30.09 in    
Wind  
Wind Speed 1 mph (WSW)    
Max Wind Speed 14 mph    
Max Gust Speed 20 mph    
Visibility 4 miles    
Events Fog , Rain , Thunderstorm    
Averages and records for this station are not official NWS values.
T = Trace of Precipitation, MM = Missing Value Source: NWS Daily Summary

Daily Weather History Graph

Daily Weather History Graph

Search for Another Location

Airport or City:

Trip Planner

Search our weather history database for the weather conditions in past years. The results will help you decide how hot, cold, wet, or windy it might be!

Date:

Astronomy

Aug. 12, 2013 Rise Set
Actual Time 5:54 AM CDT 7:34 PM CDT
Civil Twilight 5:26 AM CDT 8:01 PM CDT
Nautical Twilight 4:52 AM CDT 8:35 PM CDT
Astronomical Twilight 4:17 AM CDT 9:10 PM CDT
Moon 11:33 AM CDT (8/12) 10:37 PM CDT (8/12)
Length of Visible Light 14h 35m
Length of Day
13h 39m
Waxing Crescent, 31% of the Moon is Illuminated
Aug 12
Waxing Crescent
Aug 14
First Quarter
Aug 20
Full
Aug 28
Last Quarter
Sep 5
New

Hourly Weather History & Observations

Time (CDT) Temp. Heat Index Dew Point Humidity Pressure Visibility Wind Dir Wind Speed Gust Speed Precip Events Conditions
12:10 AM 71.6 °F - 71.6 °F 100% 30.13 in 3.0 mi Calm Calm - N/A   Clear
12:18 AM 71.6 °F - 71.6 °F 100% 30.14 in 1.8 mi Calm Calm - N/A   Clear
12:22 AM 71.6 °F - 71.6 °F 100% 30.14 in 1.0 mi Calm Calm - N/A   Clear
12:24 AM 71.6 °F - 71.6 °F 100% 30.14 in 0.5 mi Calm Calm - N/A Fog Fog
12:34 AM 69.8 °F - 69.8 °F 100% 30.14 in 0.2 mi Calm Calm - N/A Fog Fog
12:47 AM 69.8 °F - 69.8 °F 100% 30.14 in 0.5 mi Calm Calm - N/A Fog Fog
12:56 AM 70.0 °F - 70.0 °F 100% 30.13 in 0.5 mi Calm Calm - N/A Fog Fog
1:08 AM 69.8 °F - 69.8 °F 100% 30.14 in 0.2 mi Calm Calm - N/A Fog Fog
1:13 AM 69.8 °F - 69.8 °F 100% 30.13 in 0.8 mi Calm Calm - N/A   Mostly Cloudy
1:15 AM 71.6 °F - 71.6 °F 100% 30.13 in 1.2 mi Calm Calm - N/A   Mostly Cloudy
1:19 AM 71.6 °F - 71.6 °F 100% 30.13 in 2.0 mi Calm Calm - N/A   Partly Cloudy
1:31 AM 71.6 °F - 71.6 °F 100% 30.13 in 3.0 mi Calm Calm - N/A   Partly Cloudy
1:46 AM 71.6 °F - 71.6 °F 100% 30.13 in 2.5 mi Calm Calm - N/A   Clear
1:56 AM 72.0 °F - 72.0 °F 100% 30.11 in 3.0 mi Calm Calm - N/A   Partly Cloudy
2:12 AM 71.6 °F - 71.6 °F 100% 30.12 in 2.0 mi Calm Calm - N/A   Partly Cloudy
2:22 AM 71.6 °F - 71.6 °F 100% 30.12 in 1.2 mi Calm Calm - N/A   Mostly Cloudy
2:24 AM 71.6 °F - 71.6 °F 100% 30.12 in 1.0 mi Calm Calm - N/A   Clear
2:32 AM 71.6 °F - 71.6 °F 100% 30.12 in 1.0 mi Calm Calm - N/A   Mist
2:39 AM 71.6 °F - 71.6 °F 100% 30.12 in 1.5 mi Calm Calm - N/A   Mostly Cloudy
2:48 AM 71.6 °F - 71.6 °F 100% 30.12 in 1.2 mi Calm Calm - N/A   Mostly Cloudy
2:56 AM 70.9 °F - 70.9 °F 100% 30.11 in 1.5 mi Calm Calm - N/A   Mostly Cloudy
3:14 AM 71.6 °F - 71.6 °F 100% 30.12 in 2.0 mi Calm Calm - N/A   Mostly Cloudy
3:46 AM 71.6 °F - 71.6 °F 100% 30.13 in 2.5 mi Calm Calm - N/A   Mostly Cloudy
3:56 AM 72.0 °F - 72.0 °F 100% 30.11 in 1.8 mi Calm Calm - N/A   Mostly Cloudy
4:25 AM 71.6 °F - 71.6 °F 100% 30.12 in 1.8 mi Calm Calm - N/A   Mostly Cloudy
4:36 AM 71.6 °F - 71.6 °F 100% 30.12 in 2.0 mi Calm Calm - N/A   Scattered Clouds
4:44 AM 71.6 °F - 71.6 °F 100% 30.12 in 2.5 mi Calm Calm - N/A   Mostly Cloudy
4:56 AM 72.0 °F - 72.0 °F 100% 30.11 in 2.5 mi Calm Calm - N/A   Mostly Cloudy
5:12 AM 71.6 °F - 71.6 °F 100% 30.11 in 2.0 mi Calm Calm - 0.01 in Rain Light Rain
5:15 AM 71.6 °F - 71.6 °F 100% 30.11 in 1.2 mi Calm Calm - 0.08 in Rain Heavy Rain
5:17 AM 71.6 °F - 71.6 °F 100% 30.12 in 0.8 mi Calm Calm - 0.20 in Rain Heavy Rain
5:21 AM 73.4 °F - 73.4 °F 100% 30.12 in 0.2 mi South 6.9 mph - 0.44 in Fog , Rain Heavy Rain
5:33 AM 73.4 °F - 73.4 °F 100% 30.12 in 1.0 mi Calm Calm - 0.55 in Rain , Thunderstorm Light Thunderstorms and Rain
5:35 AM 73.4 °F - 73.4 °F 100% 30.12 in 1.5 mi Calm Calm - 0.55 in Rain , Thunderstorm Light Thunderstorms and Rain
5:39 AM 73.4 °F - 73.4 °F 100% 30.11 in 3.0 mi Calm Calm - 0.55 in Thunderstorm Overcast
5:56 AM 72.9 °F - 72.9 °F 100% 30.11 in 4.0 mi Calm Calm - 0.55 in Thunderstorm Overcast
6:09 AM 73.4 °F - 73.4 °F 100% 30.12 in 4.0 mi South 4.6 mph - N/A Thunderstorm Scattered Clouds
6:17 AM 73.4 °F - 73.4 °F 100% 30.12 in 1.5 mi West 3.5 mph - 0.06 in Rain , Thunderstorm Light Thunderstorms and Rain
6:19 AM 73.4 °F - 73.4 °F 100% 30.12 in 0.8 mi Calm Calm - 0.08 in Rain Heavy Rain
6:27 AM 73.4 °F - 73.4 °F 100% 30.12 in 0.8 mi Calm Calm - 0.08 in Rain , Thunderstorm Light Thunderstorms and Rain
6:29 AM 73.4 °F - 73.4 °F 100% 30.12 in 1.5 mi Calm Calm - 0.08 in Rain , Thunderstorm Light Thunderstorms and Rain
6:35 AM 73.4 °F - 73.4 °F 100% 30.12 in 3.0 mi Calm Calm - 0.08 in Thunderstorm Mostly Cloudy
6:42 AM 73.4 °F - 73.4 °F 100% 30.12 in 3.0 mi Calm Calm - 0.08 in   Overcast
6:56 AM 72.9 °F - 72.9 °F 100% 30.11 in 3.0 mi Calm Calm - 0.08 in   Mostly Cloudy
7:08 AM 73.4 °F - 73.4 °F 100% 30.12 in 2.5 mi Calm Calm - N/A   Overcast
7:19 AM 73.4 °F - 73.4 °F 100% 30.12 in 4.0 mi Calm Calm - N/A   Overcast
7:56 AM 73.9 °F - 73.9 °F 100% 30.11 in 6.0 mi Calm Calm - N/A   Overcast
8:56 AM 77.0 °F - 77.0 °F 100% 30.11 in 10.0 mi SE 3.5 mph - N/A   Overcast
9:13 AM 78.8 °F - 75.2 °F 89% 30.11 in 10.0 mi Calm Calm - N/A   Mostly Cloudy
9:56 AM 79.0 °F - 77.0 °F 94% 30.10 in 10.0 mi Calm Calm - N/A   Mostly Cloudy
10:13 AM 78.8 °F - 77.0 °F 94% 30.11 in 10.0 mi Calm Calm - N/A   Mostly Cloudy
10:28 AM 80.6 °F 88.1 °F 78.8 °F 94% 30.12 in 10.0 mi SW 8.1 mph - N/A   Scattered Clouds
10:56 AM 79.9 °F - 77.0 °F 91% 30.11 in 10.0 mi SW 8.1 mph - N/A   Clear
11:56 AM 79.0 °F - 77.0 °F 94% 30.10 in 10.0 mi SW 5.8 mph - 0.00 in Rain Light Rain
12:19 PM 77.0 °F - 77.0 °F 100% 30.10 in 4.0 mi SW 6.9 mph - 0.00 in Rain Light Rain
12:27 PM 77.0 °F - 77.0 °F 100% 30.10 in 4.0 mi SW 6.9 mph - 0.01 in Rain Light Rain
12:56 PM 75.9 °F - 74.8 °F 96% 30.06 in 3.0 mi SSW 13.8 mph 19.6 mph 0.04 in Rain Light Rain
1:56 PM 77.0 °F - 72.9 °F 87% 30.05 in 10.0 mi WSW 3.5 mph - 0.02 in   Clear
2:56 PM 79.0 °F - 72.9 °F 81% 30.05 in 10.0 mi SW 6.9 mph - N/A   Clear
3:56 PM 79.0 °F - 72.0 °F 79% 30.04 in 10.0 mi SW 5.8 mph - N/A   Partly Cloudy
4:56 PM 79.9 °F - 73.9 °F 82% 30.01 in 10.0 mi Calm Calm - N/A   Clear
5:56 PM 81.9 °F 87.7 °F 73.9 °F 77% 29.99 in 10.0 mi Calm Calm - N/A   Clear
6:56 PM 77.0 °F - 77.0 °F 100% 29.99 in 10.0 mi Calm Calm - N/A   Mostly Cloudy
7:39 PM 75.2 °F - 75.2 °F 100% 30.00 in 10.0 mi Calm Calm - N/A   Mostly Cloudy
7:48 PM 75.2 °F - 75.2 °F 100% 30.00 in 10.0 mi Calm Calm - N/A   Scattered Clouds
7:56 PM 74.8 °F - 74.8 °F 100% 29.99 in 10.0 mi Calm Calm - N/A   Partly Cloudy
8:56 PM 73.9 °F - 73.9 °F 100% 29.99 in 10.0 mi Calm Calm - N/A   Clear
9:56 PM 73.9 °F - 73.9 °F 100% 29.99 in 10.0 mi Calm Calm - N/A   Clear
10:21 PM 73.4 °F - 73.4 °F 100% 29.99 in 10.0 mi Calm Calm - 0.00 in Thunderstorm Partly Cloudy
10:40 PM 73.4 °F - 73.4 °F 100% 30.01 in 2.5 mi WNW 9.2 mph - 0.10 in Rain , Thunderstorm Heavy Thunderstorms and Rain
10:42 PM 73.4 °F - 73.4 °F 100% 30.01 in 1.2 mi WNW 9.2 mph - 0.20 in Rain , Thunderstorm Heavy Thunderstorms and Rain
10:44 PM 73.4 °F - 73.4 °F 100% 30.01 in 0.8 mi WNW 6.9 mph - 0.34 in Rain , Thunderstorm Heavy Thunderstorms and Rain
10:46 PM 73.4 °F - 73.4 °F 100% 30.00 in 0.5 mi NNW 4.6 mph - 0.39 in Fog , Rain , Thunderstorm Heavy Thunderstorms and Rain
10:56 PM 73.9 °F - 73.9 °F 100% 30.00 in 0.8 mi WNW 9.2 mph - 0.54 in Rain , Thunderstorm Heavy Thunderstorms and Rain
11:56 PM 72.0 °F - 72.0 °F 100% 29.98 in 8.0 mi Calm Calm - 0.42 in Rain Light Rain